Theta_e
362 364 364 361 362 363 360 362 361 361 362 362 361 362 364 362 365 365 364 366 362 363 359 359 361 360 357 359 361 360 360 359 360 359 362 363 363 364 364 363 362 360 359 358 359 358 358 357 356 357 356 355 355 355 356 357 357 356 356 356 355 355 353 353 353 354 354 353 353 353 353 353 353 353 353 353 353 353 352 353 352 352 353 354 354
362 363 362 363 363 364 364 361 362 364 361 363 364 363 362 362 363 363 363 362 361 354 354 353 351 357 358 355 353 352 355 356 360 358 362 361 364 363 365 364 362 361 360 359 358 359 358 358 357 357 357 357 356 355 355 355 355 356 356 355 354 354 353 353 353 353 353 354 353 353 353 353 353 353 354 353 353 353 353 353 353 353 353 353 354
362 363 364 364 365 364 361 363 360 363 364 364 365 364 362 362 363 360 363 362 357 352 350 351 354 352 353 350 350 352 351 352 354 355 359 361 364 365 365 364 363 362 361 359 359 359 358 358 357 358 357 357 356 356 356 355 355 355 355 355 355 355 355 354 354 354 354 353 354 353 354 354 354 354 353 354 354 353 353 353 353 353 353 354 354
367 365 365 364 364 362 363 363 362 363 366 365 364 366 365 363 364 365 366 366 353 351 350 345 348 348 351 347 348 350 348 351 349 352 358 360 361 364 363 361 363 361 361 360 360 359 358 358 357 357 357 357 356 356 356 355 355 355 355 356 356 357 355 355 355 354 355 354 354 354 354 355 355 354 354 354 354 355 354 354 353 354 354 353 354
367 367 365 365 364 365 363 364 366 367 367 370 367 368 367 365 365 363 361 355 351 351 351 346 345 346 344 345 346 347 349 351 351 353 359 359 360 363 363 364 364 362 360 360 360 360 359 358 358 356 357 357 356 356 356 356 355 355 355 355 355 356 355 354 355 355 354 354 354 355 355 355 355 355 355 354 354 354 354 354 354 354 354 354 354
369 366 367 364 367 367 366 364 366 368 369 367 367 366 364 364 361 362 354 352 349 349 345 344 344 343 346 342 345 349 348 345 346 349 354 356 359 363 362 364 362 362 361 360 360 359 359 358 358 357 357 357 355 355 356 356 356 356 356 355 355 355 356 355 354 355 354 354 354 355 355 355 355 355 354 354 354 355 355 354 355 355 355 355 355
367 370 365 364 364 365 366 365 368 368 368 368 363 367 363 361 359 357 353 348 344 347 343 346 343 338 341 345 344 346 346 344 344 348 351 359 358 360 361 363 364 361 362 361 360 359 359 358 358 357 357 357 356 356 356 357 356 356 356 355 355 355 354 355 354 354 354 353 354 354 355 355 355 356 355 355 354 354 355 354 355 355 355 355 355
368 370 370 367 365 365 364 368 371 368 366 370 367 365 364 362 362 355 349 343 337 345 347 345 345 342 342 343 344 339 341 344 344 343 349 357 360 361 364 365 365 363 362 360 359 361 359 358 357 357 358 357 357 357 357 356 356 356 356 356 355 355 355 354 353 353 353 353 353 354 355 354 355 354 355 355 355 355 354 354 355 354 354 354 354
368 370 369 368 365 366 365 364 371 366 369 370 369 365 367 359 362 356 353 347 334 339 340 343 345 342 339 339 343 343 347 348 343 345 348 352 357 359 361 362 364 361 364 363 361 362 359 358 358 357 358 357 357 357 356 356 357 356 356 355 355 355 354 354 354 353 353 353 354 354 353 354 354 354 354 354 354 354 354 354 354 354 355 354 354
369 369 368 367 366 365 364 364 369 370 369 368 368 366 367 364 361 357 353 350 341 340 341 344 343 342 344 340 345 345 346 347 348 346 346 349 355 356 360 360 361 361 360 361 361 361 360 359 358 356 357 357 357 356 355 356 355 356 355 355 355 354 354 354 354 354 353 353 354 353 353 353 353 353 354 354 353 353 353 353 353 353 353 353 353
368 368 368 364 363 364 366 363 367 367 371 368 366 367 365 364 357 356 355 351 344 344 337 339 342 341 335 340 346 349 349 347 350 345 346 346 351 355 359 360 360 361 361 358 359 360 362 362 361 361 361 356 357 357 356 356 356 355 354 354 354 354 355 354 354 353 353 353 353 354 353 353 353 353 353 353 353 353 353 353 353 353 353 353 353
368 368 367 365 362 361 363 363 364 366 366 365 362 361 366 366 357 352 353 350 350 342 345 338 344 343 346 344 346 348 349 348 349 348 347 347 351 356 355 356 358 357 354 358 358 360 361 363 363 360 362 357 357 357 356 356 356 355 354 354 354 354 354 354 353 353 353 353 352 350 350 350 352 352 353 353 353 352 352 352 352 352 352 352 352
368 367 366 366 365 364 364 365 366 365 367 367 363 363 363 361 357 357 351 346 346 346 335 344 346 339 345 344 345 347 348 347 347 346 344 346 349 355 354 355 356 356 356 356 357 355 358 359 361 362 361 360 358 357 357 356 356 355 355 355 355 354 354 354 354 353 353 351 352 350 350 350 350 351 352 352 352 351 351 352 352 352 352 351 352
367 368 368 366 366 363 365 365 366 367 368 367 365 363 363 361 357 354 353 350 343 343 336 346 340 337 334 338 342 343 347 345 344 344 345 347 350 356 354 352 353 354 356 353 352 354 354 358 359 357 360 362 358 357 360 358 357 354 354 354 355 354 354 354 354 353 353 353 353 353 352 351 352 352 352 352 352 352 352 351 352 351 351 351 352
367 367 367 367 368 366 365 367 369 368 365 365 363 361 362 359 356 351 348 346 346 347 344 343 335 341 343 341 335 335 340 342 343 344 345 346 348 348 347 346 348 351 352 352 349 351 348 353 357 358 358 360 360 356 359 355 357 354 355 355 355 355 354 354 354 354 352 352 353 353 352 352 352 352 352 352 351 351 351 351 350 351 351 351 351
366 366 367 368 369 367 366 367 368 369 365 364 363 360 362 360 356 355 347 344 342 342 340 347 349 344 335 337 334 333 329 336 340 342 343 345 345 344 344 345 347 347 349 346 344 348 349 351 353 353 356 357 355 357 354 355 356 355 356 357 354 354 353 351 349 348 348 348 348 347 346 348 350 350 351 350 350 351 351 351 351 351 351 350 350
365 366 366 368 369 369 367 369 369 368 369 365 363 359 360 360 357 354 350 345 342 343 342 347 347 352 344 338 332 333 332 333 336 338 342 341 342 343 345 344 343 347 344 343 345 348 346 347 351 353 354 353 351 347 347 355 356 356 356 356 354 351 348 347 347 344 343 345 346 344 345 344 344 344 345 346 347 348 350 350 350 350 350 350 349
365 366 367 366 368 369 370 369 369 369 369 366 364 361 360 358 357 352 348 349 349 347 343 347 347 350 351 349 349 338 336 336 337 330 344 342 343 343 340 344 344 345 346 344 343 343 346 345 348 350 350 350 348 348 348 347 350 350 348 353 346 349 349 345 343 343 341 342 343 344 344 344 344 345 345 346 343 345 345 346 347 346 346 346 347
364 366 366 368 368 370 371 369 368 369 370 368 365 362 359 359 355 352 353 354 347 345 345 341 347 350 348 346 347 346 344 340 334 338 334 340 342 340 340 342 344 343 342 342 341 343 345 346 344 346 346 346 345 345 346 348 349 348 344 345 342 342 345 348 346 345 344 343 342 344 345 344 344 344 345 344 344 344 345 345 344 344 345 344 344
364 366 368 368 368 369 372 370 368 368 368 366 366 363 362 361 357 356 356 357 353 344 344 345 337 342 345 345 345 346 347 345 345 340 337 334 335 340 341 340 341 340 339 335 340 342 342 345 339 341 343 343 343 345 343 343 342 341 339 345 343 341 342 343 344 344 345 344 343 342 343 344 344 344 341 344 344 343 345 345 343 344 344 343 342
367 365 367 368 368 369 371 371 369 369 368 367 366 365 363 361 360 357 356 357 356 347 348 349 341 340 342 343 346 346 342 343 345 346 340 335 334 334 336 338 339 339 339 338 342 342 341 343 343 343 345 347 348 346 344 344 342 343 340 346 343 343 341 341 344 344 343 343 342 342 342 341 342 340 343 341 343 342 341 342 343 342 343 341 339
369 367 367 368 368 369 368 369 371 369 366 366 366 365 365 363 362 359 357 355 357 350 346 351 348 350 345 345 342 342 342 342 340 341 340 342 335 333 334 335 334 336 341 337 341 339 342 341 339 340 342 344 346 344 346 346 349 346 341 347 347 345 345 344 341 342 344 344 344 342 340 340 340 341 341 342 341 341 340 339 341 341 341 340 339
366 367 366 368 368 369 367 367 370 370 368 367 366 363 362 363 363 362 358 356 355 351 347 350 351 352 350 347 344 342 340 338 339 338 339 338 337 333 333 335 333 335 341 340 345 340 340 342 340 339 347 346 346 344 347 347 349 348 346 348 351 350 349 346 344 343 346 346 342 343 342 341 339 340 342 343 341 342 341 342 340 340 341 340 340
367 363 364 363 368 368 369 368 368 368 367 369 368 366 364 363 362 362 360 357 356 355 349 348 351 351 351 346 346 346 345 343 342 342 342 341 339 336 336 340 339 337 339 345 343 342 340 340 340 341 343 344 346 348 347 347 349 349 345 347 347 348 350 349 348 347 347 345 345 342 343 342 342 341 340 339 339 340 341 342 342 343 343 343 341
364 361 361 364 366 368 368 367 366 368 369 368 370 368 366 362 363 361 360 358 355 355 350 348 349 350 348 348 345 345 345 344 344 344 342 343 342 335 336 337 336 336 340 341 340 340 341 340 344 341 342 346 345 348 349 347 349 351 352 349 347 346 347 346 348 349 348 348 346 345 342 342 342 343 342 342 342 342 343 343 343 343 342 342 342
364 364 360 364 364 367 370 369 370 370 370 370 370 370 369 364 363 362 360 360 358 356 354 350 351 352 352 349 349 345 345 346 342 342 343 340 339 338 339 339 338 335 340 341 343 338 338 342 341 347 344 345 346 348 349 346 346 352 350 347 341 345 344 347 347 348 350 350 349 348 346 345 344 344 345 345 345 346 346 346 346 346 346 345 344
363 366 367 365 366 367 369 370 370 371 371 370 369 370 370 367 364 363 363 360 358 354 355 352 348 349 353 351 350 349 348 347 341 340 340 342 340 340 340 336 334 333 335 340 341 337 335 341 339 342 348 351 349 350 350 348 351 355 350 356 349 346 347 344 346 347 347 348 349 349 348 347 345 345 345 345 346 347 346 346 346 347 347 347 347
367 367 367 366 366 365 368 369 372 370 371 371 371 369 370 368 365 364 363 360 358 356 355 355 350 351 351 353 352 348 350 346 347 344 339 342 342 343 343 340 337 331 331 333 336 336 337 336 341 344 347 348 349 350 351 348 347 353 358 349 348 350 346 346 344 345 345 346 347 348 348 347 347 346 346 347 347 347 347 346 346 346 346 346 346
362 367 368 370 368 366 366 367 370 370 371 371 370 369 370 369 365 365 362 359 359 357 354 355 354 349 350 351 350 350 351 352 349 347 348 347 345 342 342 340 340 336 332 330 334 333 337 334 334 346 348 349 351 349 347 348 350 352 348 348 345 347 347 343 345 344 344 344 344 345 346 346 346 346 346 346 346 346 346 346 346 346 345 346 347
359 361 366 367 370 370 368 368 368 368 368 367 369 369 370 367 366 366 364 363 359 358 357 355 355 352 350 350 351 349 350 352 350 348 350 349 345 344 344 344 344 337 337 335 336 338 337 338 337 341 350 350 349 349 348 349 352 349 346 346 346 346 342 343 346 345 344 343 342 341 343 344 344 344 344 343 343 343 344 345 345 345 345 345 345
363 364 365 366 369 369 369 369 368 368 368 367 369 370 370 367 364 364 365 365 361 358 358 356 355 353 350 349 352 350 351 350 351 348 349 349 346 345 345 345 344 344 342 340 335 341 341 339 338 339 346 350 345 344 346 347 352 347 346 347 347 348 343 348 344 344 343 341 340 339 339 338 338 339 338 338 339 340 341 341 342 342 343 343 344
362 363 362 365 367 366 366 366 363 363 365 366 366 370 369 368 364 362 362 365 362 358 357 356 355 355 351 350 352 352 351 351 350 350 348 351 348 345 345 345 345 345 345 343 339 337 342 337 340 343 346 348 345 344 346 347 351 350 349 347 352 347 351 352 344 341 340 339 339 338 336 334 335 336 337 338 339 339 340 341 340 341 341 341 342
364 363 364 365 367 367 365 366 362 363 367 366 366 367 369 368 366 365 364 365 363 360 359 357 356 357 354 350 351 353 353 350 350 349 347 348 350 346 346 345 343 346 345 342 339 338 344 345 340 340 343 344 342 344 344 345 351 350 349 350 350 348 348 347 349 342 339 337 336 336 335 334 335 336 337 338 339 339 340 341 341 339 339 339 338
366 363 366 366 366 367 366 367 367 364 367 368 364 366 367 367 365 364 364 364 364 361 360 359 358 356 356 353 350 351 354 350 350 348 348 346 347 344 344 344 344 345 347 343 340 340 338 344 342 344 342 343 340 348 345 342 344 348 350 350 348 348 347 348 345 351 339 338 335 334 335 334 334 334 335 336 337 337 338 338 338 336 336 335 333
368 366 365 367 369 368 368 368 369 367 368 367 367 366 367 368 365 363 364 364 363 360 359 358 357 358 355 355 352 351 351 350 350 349 347 348 347 345 344 345 346 345 347 347 344 340 338 340 346 344 342 343 341 344 347 347 350 348 346 348 345 346 348 346 345 343 340 338 335 335 334 334 334 334 333 335 335 334 334 332 331 331 330 329 328
365 369 367 368 370 371 367 368 369 369 368 366 367 366 367 368 367 365 364 365 365 362 360 359 358 358 356 355 354 352 351 350 349 349 348 347 348 348 346 347 348 347 348 348 347 344 342 337 343 343 345 342 343 344 346 348 345 345 345 347 346 345 344 347 347 346 344 337 338 336 334 333 332 332 330 331 331 329 328 327 326 327 327 326 326
363 367 369 369 370 371 368 367 368 369 369 368 369 367 367 369 369 367 365 365 365 365 362 361 361 360 359 356 356 355 352 350 350 348 348 349 348 347 346 346 347 347 347 348 348 346 344 341 342 347 347 346 346 346 345 343 345 346 348 347 345 347 348 344 344 344 345 334 337 335 334 333 332 331 330 330 330 328 327 327 326 326 326 325 325
363 362 368 368 368 370 371 369 369 370 372 371 371 369 366 367 368 368 366 365 365 366 364 362 362 361 361 359 357 358 354 350 350 349 350 349 349 347 348 348 348 349 348 347 349 348 345 343 343 342 346 343 345 346 347 345 343 342 344 346 347 347 348 346 344 341 346 346 348 347 336 334 333 330 331 331 330 329 328 327 327 325 324 323 320
364 360 362 368 369 370 372 371 369 370 371 371 371 371 369 368 369 369 366 365 364 366 365 363 362 362 362 361 360 358 357 354 351 351 350 350 348 349 350 349 349 349 347 347 347 346 346 344 343 343 343 345 346 343 346 348 347 345 342 342 344 347 350 348 346 345 343 341 340 339 339 339 338 339 329 326 329 329 329 328 327 325 324 321 318
364 362 359 364 368 369 371 371 371 372 372 371 372 373 372 369 368 369 368 364 363 365 365 365 363 362 363 362 360 359 359 358 354 354 353 350 350 349 349 349 349 348 346 346 346 345 344 342 341 341 341 343 344 345 347 348 345 344 345 343 341 343 346 350 349 347 348 346 345 340 340 340 337 336 326 327 330 331 330 329 329 329 326 323 321
366 364 363 359 366 369 370 372 372 371 370 371 371 372 372 371 369 367 368 365 363 363 364 364 364 362 361 362 362 360 362 355 346 348 347 345 351 349 351 350 350 348 347 346 346 345 344 342 341 342 341 340 342 343 340 343 342 343 346 345 342 343 347 346 352 353 350 346 345 343 341 342 342 343 343 344 348 338 337 332 337 336 331 323 323
367 368 368 364 362 366 369 371 372 371 370 372 360 344 350 371 370 368 368 368 365 363 364 363 362 361 359 359 361 350 347 345 343 339 338 337 340 349 353 352 350 349 347 346 346 345 344 341 339 340 338 338 338 342 340 343 347 347 343 344 341 344 347 345 347 350 352 349 342 343 345 345 340 341 342 340 340 342 341 344 340 338 333 328 326
368 372 368 365 362 362 366 369 370 370 371 369 343 336 339 344 365 369 368 368 368 364 363 364 362 360 359 359 360 357 349 345 349 336 337 333 334 337 343 345 345 351 348 346 346 346 344 342 341 341 339 339 340 342 341 341 343 344 343 344 344 343 342 340 337 342 351 345 344 343 343 344 343 340 340 338 338 339 340 342 332 331 327 327 326
371 368 367 367 368 364 362 367 369 370 371 351 335 334 336 337 344 370 368 367 367 365 363 361 363 361 358 358 358 360 361 360 359 353 343 334 332 333 335 340 340 341 342 349 348 346 346 343 341 341 340 340 341 343 340 340 342 343 346 344 346 344 343 341 340 336 350 350 346 343 340 344 342 339 338 337 338 339 337 336 329 330 327 326 326
369 370 371 368 368 367 365 367 367 369 370 344 332 332 334 334 335 350 367 367 366 365 365 363 362 363 361 358 357 359 358 345 354 359 357 351 332 330 333 336 339 336 334 335 342 351 348 346 343 342 341 343 342 342 342 343 348 344 345 341 343 343 344 342 340 339 341 350 345 339 336 338 339 336 334 338 338 339 337 331 329 330 328 325 326
369 369 368 369 369 370 368 367 369 369 371 343 329 328 330 330 333 342 366 366 366 366 366 365 363 363 362 360 358 357 359 361 361 360 359 356 352 348 347 349 351 347 336 332 332 337 347 347 347 345 347 348 346 347 350 350 345 344 343 343 344 345 344 342 345 347 346 347 342 338 334 335 337 336 334 336 335 336 340 334 326 328 327 326 325
368 369 368 368 369 370 368 366 365 365 369 337 325 325 326 326 329 333 364 363 364 366 366 367 366 364 364 363 361 358 361 363 361 357 359 357 355 352 351 349 349 349 351 348 347 346 348 346 347 348 349 349 350 349 350 352 350 349 347 346 345 344 344 347 349 348 345 346 344 337 330 334 338 334 334 335 333 333 336 327 326 327 326 323 324
368 369 370 369 368 368 368 367 364 365 366 330 323 323 324 324 326 349 364 363 362 364 366 367 367 367 366 364 364 361 362 364 347 335 346 359 356 353 350 350 349 349 349 342 338 340 345 345 346 345 347 346 339 350 351 350 352 351 349 347 351 351 346 342 337 335 333 338 342 338 333 333 337 331 332 334 333 331 332 333 326 326 325 324 323
365 366 368 368 370 368 368 368 367 366 366 339 320 320 322 322 328 356 362 363 363 362 364 366 367 367 367 366 365 363 362 364 344 329 334 341 356 354 352 350 349 349 348 349 335 330 332 329 330 330 322 324 328 328 329 333 350 348 347 343 340 341 339 335 335 334 334 334 334 338 333 330 334 333 330 331 332 329 330 330 335 324 323 322 321
362 364 367 368 369 369 367 367 366 367 367 345 316 318 319 319 332 358 362 362 362 362 362 364 365 367 366 349 360 364 363 364 332 327 329 342 357 355 353 351 349 348 348 348 348 345 328 328 328 323 325 326 327 329 331 331 330 340 346 338 339 336 333 334 332 333 332 333 334 337 333 329 332 333 330 331 330 328 328 331 332 332 322 317 316
365 365 365 366 367 369 368 367 354 362 367 346 315 318 317 317 332 360 362 362 361 361 361 361 363 365 367 355 344 352 357 354 323 325 325 339 357 357 355 352 349 348 348 349 347 346 345 344 343 343 342 336 346 349 346 332 339 347 345 342 339 335 332 331 330 331 328 330 334 339 332 330 330 330 329 324 321 325 328 328 328 329 328 327 326
Wind_Speed
4 4 4 3 3 3 0 4 1 2 1 1 1 1 1 2 1 1 1 2 0 0 1 1 3 3 1 3 2 2 1 2 2 7 6 5 4 7 10 10 11 10 9 9 8 7 7 7 7 5 4 3 4 4 5 6 5 5 6 4 5 4 3 3 3 3 3 3 3 3 2 3 2 2 2 3 2 3 3 3 4 4 4 4 5
4 4 4 3 3 3 4 3 3 3 2 1 1 1 1 2 2 1 1 1 1 1 3 3 2 2 2 1 2 4 4 1 3 6 6 5 5 6 9 8 9 10 10 9 8 8 7 7 7 7 6 4 3 3 4 4 5 4 4 5 4 4 3 2 3 3 3 2 3 2 3 3 4 3 4 4 4 4 5 4 5 4 5 5 5
4 4 3 3 4 3 4 2 2 2 2 2 1 1 1 2 2 2 2 2 2 1 3 0 3 3 3 3 3 3 1 4 2 5 8 6 3 4 7 8 8 9 9 9 9 8 7 6 6 6 6 5 4 4 3 4 4 4 4 5 5 5 3 2 3 2 1 3 3 4 4 4 4 5 6 6 6 6 8 7 6 6 5 5 5
1 3 4 3 4 4 4 2 2 1 2 1 2 1 2 1 2 2 2 2 2 1 2 3 2 3 3 2 3 1 2 2 4 3 8 7 5 4 5 6 8 8 8 9 8 8 7 6 5 6 5 5 5 4 4 3 3 4 4 4 5 5 5 3 2 1 2 4 4 5 5 6 6 5 6 6 7 7 8 8 7 6 6 6 6
2 3 3 3 3 2 3 2 2 2 0 0 1 2 1 1 1 1 1 2 1 1 3 3 2 3 6 6 3 1 2 3 6 3 7 8 5 5 5 4 6 8 7 7 7 6 6 5 5 4 5 6 5 5 4 5 5 4 5 5 4 5 4 4 3 3 2 1 3 4 5 6 6 6 7 6 7 7 7 7 7 7 7 7 7
3 4 4 4 4 4 4 3 2 1 2 2 3 2 1 2 1 1 1 2 1 3 3 2 2 1 3 6 2 3 1 4 7 5 5 5 6 5 4 5 5 5 6 7 7 6 5 5 4 4 4 4 4 3 5 5 5 5 6 6 5 5 4 3 3 4 4 3 3 4 5 6 6 7 7 7 7 8 8 7 7 7 6 6 7
5 4 4 4 3 4 4 3 2 2 2 1 2 1 0 2 1 1 1 1 3 2 3 3 5 1 3 4 5 3 3 3 4 4 5 6 4 4 4 3 3 6 5 6 7 7 5 5 4 4 5 5 5 5 5 5 6 6 5 6 6 5 5 6 5 4 5 6 6 5 6 6 6 6 7 7 8 8 8 7 7 7 7 7 7
6 5 4 5 5 4 4 3 3 3 2 1 2 2 0 1 1 2 2 5 3 0 2 2 0 3 5 3 4 1 2 3 4 1 9 9 3 4 4 3 3 3 4 5 6 5 7 4 4 4 4 4 4 5 5 5 5 5 5 5 5 6 5 5 5 6 6 6 7 6 7 8 9 8 8 8 8 7 7 7 8 8 8 7 8
6 6 5 5 4 4 2 3 3 3 2 2 2 2 0 0 1 2 4 1 3 3 4 1 2 2 4 6 7 3 5 2 4 2 7 7 6 4 4 4 2 2 4 5 5 5 7 7 6 5 5 4 5 5 4 4 5 4 5 5 5 5 5 5 5 5 6 6 8 8 8 8 9 8 8 9 8 8 8 8 8 8 9 9 8
7 6 5 5 5 4 3 3 3 3 2 3 1 1 0 0 1 1 2 3 2 3 1 2 3 4 3 8 4 3 3 4 5 2 3 5 5 7 5 4 4 3 2 4 5 5 6 7 6 5 5 4 5 4 3 3 3 3 3 4 4 4 4 4 4 4 5 6 7 7 7 8 8 7 8 8 9 8 7 7 8 9 9 9 9
7 7 5 6 5 5 3 3 3 3 3 2 2 1 1 0 0 2 1 3 3 3 4 2 1 3 3 1 7 3 1 3 3 2 2 6 2 3 7 4 3 3 3 3 4 4 4 5 5 3 5 7 5 4 4 3 3 3 3 4 4 4 4 4 3 3 4 4 5 6 6 5 5 7 7 8 8 7 7 6 7 8 8 9 10
7 7 6 6 6 5 5 4 4 3 3 4 1 2 1 2 1 3 1 1 3 2 2 2 2 2 5 4 4 5 1 1 1 3 2 5 3 2 3 6 6 6 7 4 5 4 3 4 3 3 3 6 5 5 4 4 3 2 2 4 3 3 3 1 2 1 2 2 2 1 2 3 4 6 6 7 7 7 5 6 7 8 8 8 8
8 7 7 6 6 5 4 5 4 4 3 3 2 1 2 1 2 2 2 1 2 4 3 2 3 1 2 2 3 2 5 3 2 4 3 4 3 3 5 3 3 2 5 5 5 4 3 4 2 2 2 3 6 6 4 3 3 3 3 3 3 3 2 2 2 2 3 2 3 2 3 4 4 4 4 4 4 4 5 6 7 7 8 8 7
7 8 7 7 6 5 5 4 4 4 3 2 1 1 2 2 3 3 0 1 1 2 5 3 3 5 5 4 1 3 1 3 4 3 2 4 3 3 2 2 3 3 3 4 6 8 8 4 4 4 2 3 3 5 5 5 6 3 2 3 3 3 3 3 3 2 2 1 1 2 1 2 2 2 1 2 2 3 4 5 6 6 6 7 8
9 8 7 7 7 6 5 5 5 4 3 4 3 3 3 3 3 1 3 4 1 3 2 5 2 4 3 0 4 5 4 2 3 3 2 4 4 5 5 5 6 5 3 3 3 4 5 6 7 4 1 3 3 4 0 3 6 7 5 5 5 4 5 6 6 5 4 5 4 5 5 4 3 2 2 2 1 1 1 2 3 4 4 5 5
9 9 8 8 7 7 6 5 5 4 4 4 4 4 3 3 3 2 1 3 5 5 3 4 6 5 4 3 2 3 6 4 4 3 5 4 5 5 4 4 4 4 2 2 5 5 5 4 4 5 6 7 4 4 4 4 8 9 9 8 7 7 7 7 6 6 5 4 4 4 3 3 3 3 3 3 3 4 2 2 1 1 1 1 3
9 10 9 8 7 7 6 5 5 5 4 4 4 4 4 4 3 2 3 3 2 5 3 3 1 4 1 3 3 4 4 7 6 1 1 3 5 4 4 3 5 2 3 6 3 4 5 5 4 5 4 4 6 7 7 7 6 6 7 7 7 7 6 5 6 5 5 5 4 3 3 2 2 1 1 1 1 2 2 2 3 1 1 1 0
9 10 10 8 8 7 7 6 5 5 5 4 4 3 4 4 5 4 5 3 5 3 4 2 1 1 2 4 3 4 5 4 1 4 0 3 2 2 4 3 5 4 4 5 4 4 4 4 4 3 3 4 4 4 5 5 6 5 4 5 6 6 5 4 5 5 4 4 4 3 3 2 1 2 2 1 1 1 1 2 2 1 1 1 1
11 10 9 9 8 7 7 7 6 5 5 4 4 4 4 4 4 3 2 3 2 2 4 5 3 2 4 4 4 4 6 2 2 4 3 2 1 3 4 6 6 5 5 7 7 5 3 4 5 4 4 4 4 5 4 5 7 8 9 8 6 6 5 3 4 4 4 4 3 3 3 3 2 1 1 1 2 2 2 2 2 2 2 1 2
10 10 10 9 9 8 8 7 7 6 6 5 5 4 3 3 2 4 2 3 3 4 4 5 5 4 4 4 3 1 1 1 3 1 1 4 3 4 4 6 6 6 5 2 7 6 4 2 5 4 4 5 4 4 5 5 5 6 6 7 7 6 6 5 4 4 4 4 3 2 3 2 2 1 1 1 2 2 2 2 2 3 3 3 2
10 10 10 10 9 8 8 8 7 7 6 6 6 5 5 5 5 4 4 4 4 4 5 3 5 6 5 4 2 2 4 3 2 2 2 3 4 5 2 3 5 4 5 6 10 7 6 4 3 5 5 4 3 4 5 5 6 6 7 9 7 7 7 6 5 5 4 4 4 3 2 2 2 2 1 1 1 1 1 2 2 2 3 3 3
10 10 10 11 10 10 9 9 8 7 6 6 6 6 5 6 6 6 5 5 4 5 5 4 5 2 6 4 4 3 2 3 4 4 4 3 2 4 8 5 5 3 2 4 5 3 9 6 4 7 6 6 4 4 4 5 6 6 8 11 9 8 7 6 6 6 5 4 4 4 4 3 3 3 3 3 3 3 3 3 3 4 4 4 4
10 10 11 11 11 10 10 9 8 7 7 7 6 7 7 6 6 7 6 6 5 5 6 6 4 3 4 5 5 4 4 4 4 5 4 4 5 6 7 10 8 6 2 4 3 3 4 7 5 5 7 5 4 5 3 4 8 7 15 12 9 9 8 8 7 7 7 6 6 5 4 4 4 4 4 4 4 5 5 5 5 6 6 6 6
9 9 10 12 10 10 10 10 8 8 8 7 7 6 6 7 6 6 6 6 6 5 5 6 6 5 5 6 6 5 5 5 5 4 3 4 5 7 2 4 4 4 4 2 2 5 5 2 3 3 7 3 4 4 4 4 6 15 12 12 11 10 10 10 11 10 9 8 7 7 6 5 5 5 5 5 6 6 6 7 7 7 8 8 8
10 10 11 13 10 10 10 9 8 8 8 8 8 8 6 6 6 8 7 8 7 7 6 7 8 6 6 6 6 6 5 5 4 3 6 4 3 4 5 2 5 3 4 5 5 5 5 4 4 6 3 4 5 5 4 5 5 11 11 12 14 13 12 12 12 12 11 10 9 9 8 8 7 7 7 7 7 7 7 8 8 8 9 9 9
11 11 10 12 12 11 11 11 9 9 9 9 8 8 7 7 8 8 9 7 7 8 7 8 8 8 6 6 6 6 6 5 5 4 4 6 5 6 4 3 2 5 5 4 3 5 6 6 6 6 4 5 5 5 6 5 6 16 13 9 15 15 14 13 13 12 13 12 11 11 11 10 9 9 8 9 9 9 9 9 9 9 10 9 9
11 10 11 10 12 11 12 11 11 10 10 9 8 8 8 8 7 8 7 7 8 8 8 9 8 9 9 7 6 6 5 5 6 6 5 5 5 5 5 5 5 4 4 5 5 7 5 6 7 4 5 4 4 5 6 7 2 12 13 7 6 14 15 16 13 13 12 12 12 12 12 11 10 10 10 10 10 10 10 10 10 10 10 10 10
10 10 11 11 11 11 12 12 11 11 11 10 10 9 9 8 8 8 9 7 8 9 8 9 9 10 10 8 6 7 6 6 5 5 5 4 4 4 4 5 5 5 5 4 6 6 8 7 6 5 5 5 5 5 5 6 5 13 10 6 6 8 15 14 14 13 12 11 11 11 12 11 11 11 11 11 11 10 11 11 11 11 11 11 11
10 10 11 11 11 11 12 12 12 11 11 11 11 10 9 9 9 9 9 9 9 9 9 8 9 9 9 10 8 7 6 6 6 5 5 4 3 4 3 4 4 5 5 5 4 6 8 8 6 8 6 6 5 6 6 6 5 9 7 6 7 6 13 16 14 12 11 11 11 11 10 10 10 10 10 11 11 11 12 12 12 12 12 11 12
11 10 11 12 11 12 11 11 12 12 12 12 11 11 10 9 10 9 10 9 9 8 9 9 9 9 9 9 9 7 7 6 7 6 5 5 5 4 5 4 4 5 5 4 5 6 4 6 7 5 5 6 6 6 6 6 7 10 6 6 6 3 10 13 11 11 11 11 11 11 10 10 9 9 9 9 9 10 11 12 12 13 13 12 12
11 10 10 12 12 12 12 12 11 12 12 12 12 11 11 9 10 10 10 10 9 9 9 9 9 9 9 10 9 8 8 8 7 8 6 6 6 5 5 5 5 6 5 4 5 4 4 4 6 4 8 6 7 7 6 5 8 6 5 5 5 10 10 9 11 11 11 11 10 11 10 10 10 9 9 9 9 9 10 11 12 12 12 12 12
13 13 12 12 13 14 13 13 13 13 13 13 13 12 11 10 10 10 10 11 11 11 10 10 9 9 10 10 10 8 8 7 7 7 7 6 7 7 6 6 6 6 6 5 6 4 5 5 4 3 6 7 6 6 6 6 6 9 5 5 3 10 6 6 13 13 13 12 12 11 11 11 11 10 10 9 8 10 10 11 11 11 10 10 10
12 13 13 13 13 13 14 13 14 12 12 12 11 11 11 11 10 11 11 12 12 11 10 11 11 10 10 10 10 10 9 8 8 8 8 8 8 7 7 7 7 7 7 7 7 7 4 4 5 5 6 6 7 7 6 6 6 6 6 6 6 6 6 7 7 15 14 14 13 12 11 11 11 10 10 9 8 10 10 11 10 10 10 10 10
13 14 14 14 13 14 14 13 13 13 12 12 13 12 12 12 13 10 11 12 13 12 11 12 12 10 10 11 11 11 10 10 9 9 8 9 9 9 8 8 8 8 8 7 8 7 7 6 6 5 4 6 6 7 7 7 7 6 7 5 6 6 6 5 6 6 17 14 13 13 12 11 11 10 10 10 10 10 9 10 10 10 9 9 10
14 13 14 14 13 13 13 12 12 12 12 13 12 12 13 14 14 13 12 13 14 14 14 13 13 12 12 11 12 11 10 11 11 10 10 9 9 10 10 9 8 9 9 9 7 8 8 7 6 6 6 6 7 6 7 6 5 5 5 6 6 6 6 6 5 4 15 13 14 13 12 11 10 10 10 10 10 9 9 10 10 9 9 9 9
14 13 14 14 14 13 14 13 13 13 13 13 13 13 14 14 14 14 13 13 14 14 14 14 14 13 13 12 12 13 12 12 12 10 10 10 9 9 9 9 9 9 8 9 9 7 7 8 7 7 6 7 7 7 6 6 7 7 6 6 7 7 6 5 5 5 11 16 14 13 12 11 11 11 11 11 9 9 10 10 10 9 9 9 9
16 14 13 14 13 14 14 14 14 14 14 14 14 15 14 14 15 14 14 14 14 15 15 14 14 14 14 14 13 13 13 12 12 12 11 12 10 10 10 9 9 9 8 8 9 8 8 8 7 6 6 6 6 7 7 7 7 7 6 7 7 7 7 7 6 6 9 17 14 14 13 12 12 13 13 10 9 10 10 10 9 9 9 9 8
16 16 15 14 14 15 15 14 14 15 14 14 15 15 16 15 15 15 14 14 14 15 15 15 15 14 14 15 14 14 14 14 13 13 12 14 12 11 11 10 10 9 9 9 8 9 9 8 7 7 7 7 7 7 7 8 7 7 7 7 8 7 6 7 7 7 5 7 6 7 9 9 12 14 10 9 11 11 10 9 9 9 8 9 9
17 17 17 16 15 15 15 15 15 15 15 15 15 15 15 15 15 15 15 15 14 14 15 16 16 16 16 15 15 15 15 15 15 14 14 14 13 13 12 11 11 10 10 9 9 10 9 9 8 8 7 8 8 8 8 8 8 7 7 7 8 7 7 7 7 6 6 5 7 7 7 8 2 4 10 12 11 11 11 10 10 9 10 10 9
18 18 18 18 16 16 16 16 15 15 15 15 15 15 15 15 15 15 15 14 15 15 15 16 16 16 16 17 17 17 17 16 16 15 14 14 12 13 12 11 11 11 11 10 10 10 10 10 9 9 9 8 8 8 7 7 8 8 7 7 8 7 7 7 7 6 5 5 5 6 8 6 6 10 8 9 12 13 13 11 11 11 11 9 5
15 17 18 18 17 16 16 16 16 15 15 15 14 15 15 16 15 15 15 15 15 15 15 16 16 16 16 16 17 17 17 17 19 16 16 14 13 13 12 12 12 12 11 10 10 10 10 10 9 8 9 9 8 8 9 8 10 9 8 8 8 7 6 7 5 1 3 6 6 5 5 4 5 4 4 5 6 12 12 14 9 12 9 5 6
15 15 15 16 18 18 17 17 16 15 14 13 15 19 16 14 15 14 14 15 15 15 15 15 16 17 18 16 16 19 18 19 18 19 18 17 17 14 12 12 13 12 12 11 11 10 10 10 10 10 10 10 10 9 9 10 9 8 9 8 9 8 6 6 4 4 3 4 8 6 5 4 6 5 5 5 6 6 6 3 2 5 9 8 6
15 14 15 17 17 17 18 17 17 15 14 13 18 19 20 19 16 15 15 14 15 16 16 15 16 16 16 17 16 16 17 16 18 20 18 18 18 17 15 15 13 13 13 13 11 11 11 10 10 10 10 10 10 10 10 10 10 9 9 8 8 7 7 7 7 2 2 6 7 6 5 5 4 5 6 6 5 6 6 3 11 11 10 9 8
14 15 16 16 15 16 16 18 18 16 15 16 19 21 21 21 18 15 15 14 14 15 16 16 15 15 16 16 16 13 15 18 17 16 18 19 18 18 16 14 15 15 14 12 11 11 11 11 11 11 10 10 9 9 9 10 9 9 9 7 7 7 7 7 7 5 2 4 4 5 6 5 5 7 6 6 7 5 3 10 13 12 12 12 9
15 15 15 15 16 16 16 16 18 17 16 17 20 22 23 23 22 19 14 15 15 15 16 17 16 15 14 14 15 13 13 19 16 16 14 15 16 20 18 15 14 15 14 13 10 10 10 11 11 11 11 9 10 9 9 9 7 8 7 6 7 8 7 7 6 3 4 4 5 6 6 5 4 6 7 5 4 5 3 12 15 14 11 11 9
15 15 16 16 15 15 15 15 15 16 16 15 20 22 23 24 24 20 16 16 16 16 16 16 15 16 16 15 14 14 14 12 14 16 15 15 13 12 13 11 11 12 13 15 13 12 10 10 11 11 9 9 8 7 8 7 8 8 8 7 5 5 6 7 6 4 6 7 6 5 6 6 6 6 5 4 5 4 6 5 13 12 13 11 9
15 15 16 16 15 15 16 16 15 15 15 16 21 22 23 24 23 20 17 17 16 15 16 16 16 17 17 16 16 15 14 13 13 17 15 16 15 14 14 15 16 16 14 15 15 14 12 13 11 12 10 9 9 8 6 6 8 8 8 7 8 9 8 6 5 4 5 6 7 6 7 5 4 5 6 6 6 4 3 10 14 13 12 12 9
14 14 14 15 16 16 16 16 17 17 16 17 21 23 24 23 24 15 15 17 16 15 15 16 16 15 16 17 16 16 14 14 14 21 18 15 16 17 17 16 16 16 15 15 16 16 15 15 12 12 10 10 10 9 6 7 7 7 8 7 6 5 5 6 7 7 8 8 9 8 6 6 5 6 6 6 4 5 5 4 12 14 13 10 9
14 14 14 15 13 15 17 16 17 16 16 15 21 23 24 25 20 14 15 16 16 16 15 16 16 17 17 17 16 15 15 15 16 23 22 20 17 18 17 17 15 15 15 13 17 18 17 14 12 9 5 5 5 10 11 6 3 6 7 7 8 7 6 7 7 6 7 7 5 8 7 7 5 5 6 4 5 5 6 7 3 11 12 13 14
15 15 14 13 14 15 17 18 18 17 16 14 22 23 25 25 22 15 14 16 17 16 16 16 15 15 17 19 17 17 16 16 19 25 25 22 18 18 17 16 17 16 15 14 11 12 16 15 8 8 8 9 8 9 11 10 7 5 8 8 8 7 8 8 7 6 7 7 4 9 8 6 5 5 5 5 5 5 6 4 2 9 12 13 15
14 13 13 13 14 14 16 18 17 18 18 15 21 23 25 25 22 14 15 15 16 16 16 16 16 14 15 14 19 18 18 17 20 25 26 23 18 17 17 17 17 17 16 15 15 15 13 12 8 7 6 8 8 8 7 10 10 9 10 10 8 7 8 7 7 7 8 6 8 4 4 5 6 5 4 4 5 4 4 4 4 3 4 5 4
Wind_Direction
176 181 191 197 184 228 288 214 296 291 266 267 284 277 265 358 347 327 5 342 281 18 200 119 271 123 66 111 137 51 111 84 82 124 134 140 129 145 156 151 149 150 149 148 146 153 150 147 153 144 147 157 162 159 145 151 167 179 179 181 183 176 188 174 194 195 204 207 203 199 229 229 226 234 244 250 250 251 256 257 266 277 281 296 310
180 196 189 183 207 223 218 224 179 200 255 242 253 251 330 334 360 302 353 2 310 161 257 165 119 75 106 133 165 171 139 152 176 121 125 121 134 131 153 152 152 152 157 156 152 153 158 153 159 161 167 162 148 161 155 150 159 159 182 185 184 186 183 215 212 211 202 217 225 217 239 254 255 261 278 272 272 264 266 263 265 269 278 289 297
173 184 194 187 204 209 235 223 218 220 220 237 234 300 333 343 356 335 335 7 321 351 318 228 125 153 157 195 171 162 126 133 130 128 121 123 109 108 132 156 155 154 156 163 154 158 161 162 174 169 173 177 167 164 161 174 160 165 169 170 189 178 184 217 242 258 278 226 230 224 240 247 261 271 273 269 281 296 284 279 276 274 276 282 287
96 189 210 188 213 198 223 227 257 267 236 327 318 2 320 4 326 347 350 304 325 347 313 301 127 150 169 211 111 43 123 103 129 77 118 115 123 122 140 145 151 149 155 156 157 159 163 169 173 182 183 180 183 172 176 164 165 176 154 153 165 162 156 144 145 193 259 259 247 246 243 247 248 235 248 257 265 261 271 279 283 284 287 286 287
201 221 229 210 219 226 228 221 229 235 242 109 298 272 248 241 273 6 7 290 290 344 243 280 124 53 271 130 109 90 161 209 106 97 83 117 135 142 130 149 144 139 146 152 156 156 161 166 172 181 187 182 186 178 177 191 181 177 181 178 181 174 176 176 170 177 179 199 246 258 259 259 258 264 262 262 259 266 271 278 283 286 288 290 290
207 213 231 215 208 210 243 230 225 210 227 214 228 221 319 297 311 40 318 287 356 46 352 301 88 189 308 65 194 115 331 209 119 113 123 118 124 130 146 152 152 146 140 147 149 156 158 171 180 188 186 174 176 211 208 196 201 202 191 189 201 201 188 193 197 203 203 209 228 249 259 259 258 261 262 262 266 268 277 282 280 279 280 286 289
210 217 218 242 215 214 211 226 224 222 239 208 275 340 296 290 360 304 278 229 19 94 336 350 31 5 340 18 354 46 289 60 71 124 116 102 104 131 141 145 177 135 152 143 153 157 162 167 172 178 188 175 184 201 206 211 214 208 207 216 218 213 213 208 206 230 241 239 242 254 259 258 263 263 262 264 263 269 272 276 277 282 286 286 289
206 215 228 223 226 216 207 196 190 235 247 221 256 247 314 327 11 283 26 10 330 119 96 84 266 311 75 262 174 137 182 344 48 176 112 122 133 126 132 151 151 139 151 142 138 150 157 171 183 181 184 183 183 192 202 202 212 217 229 232 234 236 250 253 247 241 245 248 248 243 255 263 262 260 265 268 271 272 275 278 278 280 283 287 290
205 210 231 231 235 232 210 194 213 236 226 244 232 261 239 284 69 343 56 334 315 43 23 281 85 286 132 228 72 36 347 152 189 199 99 111 132 138 124 127 89 125 182 116 124 140 153 168 174 183 186 189 176 190 193 202 190 213 225 231 226 239 245 247 249 255 258 255 252 249 251 261 263 270 274 273 275 278 279 280 281 285 287 288 290
199 211 225 240 236 237 218 198 216 234 240 237 261 252 181 78 101 350 43 315 28 17 298 8 83 267 253 84 68 59 25 348 10 357 120 121 152 150 149 150 153 175 127 93 136 143 147 168 172 176 187 180 172 165 204 207 217 214 239 237 239 242 241 238 237 235 246 247 253 258 252 259 266 269 275 281 278 274 275 281 283 282 283 282 281
197 203 217 229 236 228 236 215 220 221 238 247 226 204 270 196 45 102 346 13 36 12 12 335 139 279 135 141 84 93 40 345 352 309 306 113 109 145 136 137 152 149 127 145 147 146 155 153 172 180 187 180 171 191 190 196 216 209 235 244 254 264 256 254 242 246 249 246 251 253 259 265 269 276 281 279 276 277 280 278 280 278 279 285 290
195 200 212 225 234 226 223 225 225 223 230 249 203 210 163 140 159 125 144 132 119 334 120 180 230 254 25 44 108 120 164 326 312 266 224 142 137 142 109 154 167 187 143 164 146 140 157 147 148 168 142 161 171 175 189 184 192 201 227 232 232 240 253 296 287 229 202 252 268 282 271 282 285 278 277 280 290 289 276 274 270 267 272 278 281
195 201 208 217 230 237 226 225 229 228 226 237 228 322 125 87 108 130 130 300 96 190 105 292 65 285 140 296 118 159 163 185 224 253 203 114 154 160 165 136 93 111 125 158 135 135 151 135 148 94 158 125 169 171 168 170 160 174 219 212 215 229 208 204 184 155 158 198 237 249 248 253 267 275 286 285 278 280 279 282 289 287 284 282 281
195 198 210 210 215 225 224 220 226 233 231 234 235 176 150 188 142 153 96 337 210 6 100 173 192 187 175 167 235 140 34 183 162 213 139 124 124 109 86 101 116 125 107 127 155 162 153 163 136 162 201 173 134 128 153 163 140 163 171 190 162 170 156 138 130 150 154 180 196 241 230 256 276 294 298 301 309 306 302 292 292 294 301 298 290
194 198 206 209 212 216 214 213 219 225 214 221 209 195 194 184 188 172 148 173 315 88 218 249 249 66 49 168 190 166 144 166 156 171 133 121 141 159 157 138 137 132 150 175 117 86 96 123 136 153 184 78 97 93 169 99 108 124 103 114 128 133 132 128 121 116 103 82 78 74 80 86 79 93 58 43 23 315 287 263 253 270 273 281 289
196 198 204 205 207 210 212 212 208 215 219 221 207 199 189 184 167 162 255 264 165 144 212 177 297 131 167 218 190 163 140 155 153 162 160 149 156 137 131 120 114 101 160 119 80 89 99 110 111 128 141 143 129 137 132 113 124 121 115 100 109 122 115 110 107 109 105 97 88 77 64 61 67 68 81 73 52 65 70 57 21 30 343 332 350
197 200 203 202 203 208 210 211 204 200 213 214 210 208 188 168 190 129 191 253 136 134 162 215 199 3 292 211 166 190 160 155 137 48 135 147 145 125 109 140 112 158 74 68 104 115 102 95 103 112 113 122 142 144 128 140 137 127 118 113 94 102 111 118 119 114 110 110 108 102 89 78 60 72 77 104 76 81 92 71 100 83 93 102 33
204 200 203 201 199 203 206 210 202 200 208 216 209 210 176 191 160 202 163 244 324 127 160 198 226 169 284 332 336 10 13 40 154 134 357 128 79 127 148 135 117 119 117 144 118 86 121 104 110 121 124 124 123 111 109 124 139 142 130 115 114 111 112 126 128 118 111 107 111 118 116 104 100 78 82 68 111 78 42 76 40 27 39 69 73
201 201 204 200 199 201 205 208 206 200 201 211 213 210 183 214 172 163 199 143 166 265 173 176 185 207 219 234 212 295 41 331 135 136 167 169 137 203 156 145 124 136 176 180 135 141 97 127 130 116 113 119 114 120 138 113 83 91 110 122 127 130 127 128 138 139 139 137 142 141 147 142 120 94 43 42 57 49 44 39 33 27 26 32 46
202 199 201 200 199 200 202 206 207 202 195 206 215 217 174 184 188 133 175 156 173 221 226 164 180 198 203 236 214 285 90 337 344 312 131 168 173 249 185 149 164 175 168 222 155 113 110 140 122 142 152 132 138 157 116 128 126 130 130 141 144 146 152 155 161 171 159 161 165 166 149 156 137 114 49 7 2 24 1 359 1 356 349 355 3
203 200 198 201 197 202 200 204 204 205 196 209 205 201 191 185 164 168 176 172 202 195 238 214 185 179 181 206 257 203 187 210 236 199 254 208 181 177 196 168 226 159 182 163 121 149 154 186 107 147 133 152 174 139 146 146 157 148 150 157 161 165 169 172 186 182 172 162 171 187 189 162 184 170 206 204 264 298 279 290 304 298 308 314 325
199 204 195 200 199 199 203 204 206 203 197 213 207 191 192 187 179 179 180 199 190 196 211 230 240 124 162 170 200 210 245 200 208 213 201 232 280 217 165 195 197 193 163 257 132 175 153 133 177 186 162 153 180 201 148 178 143 170 158 163 178 181 181 191 193 195 193 191 188 194 193 219 205 216 216 229 230 245 258 262 271 278 281 295 300
198 199 200 197 200 198 206 205 205 202 200 206 210 197 189 192 185 182 181 203 195 201 210 225 216 240 150 188 189 203 204 198 210 215 196 188 210 246 186 181 189 176 188 202 146 227 186 160 201 198 148 162 174 186 172 201 175 148 147 169 180 192 194 200 206 211 204 214 210 212 212 219 228 236 243 252 256 265 269 273 274 272 280 285 286
202 200 202 202 197 200 205 207 203 204 200 201 203 209 199 186 183 185 187 203 205 203 210 213 215 208 210 186 202 210 195 217 195 212 237 204 217 252 297 51 20 142 164 283 159 208 244 195 176 189 157 151 188 194 171 199 139 135 162 167 183 192 200 206 211 212 214 212 224 227 228 227 236 242 246 249 258 263 269 274 274 277 277 278 280
203 203 200 202 196 198 199 203 204 202 203 195 202 201 206 181 183 191 192 197 209 200 209 212 215 207 211 209 194 212 201 204 262 227 181 241 260 228 274 169 193 206 173 176 197 219 219 227 190 259 176 168 191 176 200 196 171 164 186 176 185 191 199 207 209 214 212 213 215 223 228 228 231 235 241 251 256 263 268 271 275 275 279 279 279
204 205 206 199 199 196 197 198 198 196 198 197 196 193 191 193 187 194 189 197 204 208 212 217 215 222 216 227 212 208 211 192 199 232 207 191 206 227 240 269 214 203 170 159 222 236 199 217 229 184 214 187 198 181 208 216 225 167 200 202 186 190 197 203 210 209 213 210 211 217 223 228 232 236 241 247 252 256 260 265 271 278 280 281 279
207 204 207 206 199 194 195 198 193 192 192 194 194 190 186 196 200 191 201 196 202 211 207 218 215 216 221 224 231 218 217 212 195 190 241 201 199 213 217 219 220 246 178 178 189 228 242 202 209 212 180 195 205 203 197 218 231 159 185 222 189 189 197 202 206 210 212 214 213 216 222 228 233 240 246 250 253 257 260 261 265 271 274 274 276
205 206 202 207 204 201 193 198 195 192 191 192 192 192 188 192 198 195 202 202 195 208 214 213 220 216 219 220 224 232 207 221 226 192 208 239 195 232 198 220 240 203 226 205 200 204 220 255 169 224 180 190 211 234 223 219 218 162 181 218 239 201 196 200 205 209 209 214 218 219 224 228 233 238 244 248 251 253 255 257 259 261 262 265 268
208 204 205 202 204 203 199 200 199 196 192 192 193 192 189 194 196 197 201 211 194 203 214 213 220 218 215 216 218 228 229 211 228 226 193 220 230 204 225 217 217 255 206 213 220 246 183 212 219 182 189 175 199 226 226 215 195 163 202 225 223 234 182 201 200 201 206 208 216 220 224 228 231 236 241 246 248 250 252 253 253 254 256 260 260
213 210 203 202 202 201 201 200 199 200 198 198 199 196 192 196 199 201 201 209 200 193 209 215 214 221 216 214 213 217 224 216 211 226 200 202 213 213 207 219 209 225 254 246 214 219 238 188 246 128 196 176 194 209 230 220 157 180 233 236 233 245 159 184 187 199 203 207 212 218 220 226 231 232 239 242 243 244 246 248 249 250 253 255 257
208 212 205 204 203 201 201 201 200 200 199 199 194 196 195 202 200 203 201 203 207 201 202 213 215 214 218 217 210 217 215 218 212 209 212 193 208 211 210 208 206 222 233 235 257 204 247 210 223 180 169 190 206 202 199 223 152 204 232 238 247 125 156 174 189 197 203 206 210 216 218 224 228 232 234 239 241 241 247 247 249 251 254 256 259
209 205 209 208 203 206 205 203 202 204 201 202 200 197 195 201 203 204 201 198 206 207 204 205 214 208 212 216 214 212 214 214 216 210 207 203 203 209 209 205 210 213 218 232 239 241 189 244 208 220 168 177 218 217 196 201 166 169 218 231 179 143 194 205 187 200 200 202 208 213 217 218 225 228 231 232 228 241 245 248 250 255 258 262 263
209 206 206 208 206 206 209 207 207 203 200 200 199 195 198 197 201 206 206 194 203 209 207 208 207 212 208 212 215 210 212 213 214 215 208 201 205 211 208 205 210 205 209 215 224 234 222 221 251 228 209 217 195 206 225 212 164 182 211 231 228 228 226 237 220 195 199 202 205 209 210 216 220 226 233 231 230 239 245 248 252 254 258 262 264
210 209 204 207 207 205 210 207 206 205 199 198 200 197 198 197 199 200 208 197 201 204 203 211 207 211 206 208 213 211 208 214 213 216 215 204 204 208 205 209 207 204 203 208 218 225 230 205 224 239 248 193 244 179 209 218 226 201 201 209 215 228 242 243 257 191 194 200 203 204 209 212 215 223 228 232 234 240 241 249 252 256 259 261 263
205 210 206 207 204 205 206 206 203 205 201 200 203 203 201 200 199 201 204 202 202 202 204 209 210 208 211 206 210 209 205 210 212 214 217 215 207 209 209 208 209 209 199 207 212 221 228 230 210 219 225 219 218 214 210 224 236 237 228 219 230 228 226 242 248 270 178 195 200 204 210 209 218 226 231 236 243 241 247 249 250 252 253 257 259
206 204 209 206 204 203 205 204 201 202 202 202 204 207 205 204 202 203 202 203 203 203 204 207 209 208 209 207 209 209 206 206 208 210 214 215 212 209 212 208 210 212 208 195 212 225 225 232 221 224 210 219 215 235 224 212 224 220 226 233 239 257 254 229 225 253 173 191 198 205 206 210 219 227 231 238 241 246 251 253 254 253 253 254 256
210 203 204 206 205 203 204 202 201 201 202 203 202 207 208 208 208 206 205 203 204 204 206 207 207 207 207 208 206 208 207 206 205 208 210 211 211 210 210 209 208 209 211 205 202 213 228 229 231 211 229 225 220 220 223 219 212 225 219 232 232 230 233 242 250 233 165 188 197 203 202 206 218 226 231 228 230 236 240 245 248 253 258 260 259
209 209 202 204 204 203 203 202 201 200 201 202 203 205 208 208 209 210 207 206 204 204 207 209 208 208 208 207 207 207 208 208 206 206 208 208 209 211 209 209 207 204 209 210 209 205 215 229 230 231 204 233 223 226 215 224 225 212 221 224 229 234 230 232 239 243 210 182 202 204 206 218 226 232 231 218 222 229 234 235 238 244 251 255 256
207 210 206 203 202 202 201 201 201 201 201 203 203 204 207 208 207 210 212 208 207 206 207 209 210 210 210 208 207 208 209 209 208 204 203 206 208 209 209 208 206 206 205 211 207 208 210 215 222 231 234 212 223 224 221 222 227 233 223 223 228 221 221 226 237 246 260 236 214 202 231 233 226 233 208 213 214 223 225 225 231 233 238 240 244
209 209 211 204 202 202 201 202 202 201 202 204 203 203 204 206 206 208 212 212 209 209 209 210 212 214 212 212 211 209 208 208 207 205 202 203 203 208 207 206 206 206 209 208 207 208 209 213 217 216 220 235 209 227 219 212 220 225 228 226 227 224 219 222 229 237 243 248 260 260 211 221 240 246 205 203 211 217 218 222 223 224 221 225 219
208 210 211 211 203 202 202 201 201 202 204 204 204 202 203 204 206 207 209 213 213 212 211 211 213 216 217 214 215 213 206 206 202 202 202 198 200 203 203 203 204 206 208 207 207 207 209 213 214 217 224 220 223 211 215 208 213 218 213 222 231 231 227 217 200 319 291 263 256 258 275 258 258 265 248 229 215 210 218 220 219 209 214 159 181
208 208 211 212 210 204 202 202 202 203 206 206 200 195 196 202 203 207 207 210 214 214 213 214 215 215 219 220 216 210 204 201 198 199 198 196 201 203 200 199 200 203 204 207 206 207 210 211 215 212 215 222 220 216 219 216 217 221 225 219 227 222 219 235 210 196 202 291 261 241 237 245 250 257 262 263 269 256 285 207 84 79 121 162 170
210 205 209 212 214 211 204 203 204 206 206 207 189 188 192 195 202 206 206 208 211 215 216 215 216 216 218 219 224 202 201 196 197 195 197 197 195 205 203 200 199 200 201 205 208 208 206 213 213 217 218 218 219 216 215 222 216 221 223 223 231 228 232 230 235 167 157 188 246 264 261 267 277 272 265 267 278 288 269 121 134 141 159 168 178
207 211 210 211 213 215 209 206 207 208 210 201 183 186 189 192 196 204 209 210 210 214 217 218 218 218 218 219 219 219 202 203 198 193 196 195 195 201 205 202 199 203 209 204 204 207 209 211 215 218 220 219 219 218 222 220 217 214 220 220 225 238 225 229 245 249 140 206 233 241 256 255 245 252 262 258 256 259 246 142 159 160 171 172 173
205 208 210 208 211 214 215 210 211 211 215 196 183 185 189 192 195 201 212 212 213 215 215 216 219 218 218 217 220 217 218 194 198 196 190 193 196 197 203 205 203 201 206 219 221 217 209 216 218 220 221 221 219 219 222 230 210 219 203 223 220 228 231 242 243 227 175 213 228 245 259 265 276 266 256 246 270 277 219 169 179 178 170 171 167
206 208 210 211 211 212 216 217 215 217 217 193 183 185 190 192 195 198 212 213 217 218 217 216 217 218 216 217 217 216 219 195 191 198 192 193 189 196 203 205 206 205 208 212 218 227 239 223 218 226 222 221 229 224 211 218 214 218 212 212 232 261 243 236 234 220 170 187 218 247 258 252 242 254 269 285 270 254 254 165 165 166 173 164 173
204 206 208 211 213 213 214 219 222 222 224 190 182 185 189 192 196 199 211 217 219 220 219 218 218 217 216 217 216 216 212 207 187 191 191 193 191 196 200 205 210 212 207 210 212 214 216 223 224 223 229 224 228 229 219 203 212 214 225 228 215 217 224 218 217 224 240 226 225 228 246 245 250 261 267 269 273 282 306 143 175 174 165 171 176
209 209 212 215 215 216 217 219 222 223 223 187 183 184 188 191 192 198 209 218 223 223 221 220 218 218 218 216 216 214 210 210 183 179 184 187 192 196 200 205 209 212 215 211 210 212 217 218 224 229 230 230 220 227 204 200 217 220 227 223 218 212 220 231 240 242 244 235 208 214 228 249 250 264 273 275 296 298 310 313 161 175 166 165 183
210 212 213 214 218 219 218 219 222 225 228 188 183 186 188 189 186 200 205 213 222 225 227 222 220 220 217 213 215 212 210 212 178 178 177 179 193 194 197 200 203 207 214 205 199 205 214 223 227 230 61 83 157 141 126 128 213 231 215 224 222 220 217 229 236 244 256 266 201 196 236 250 248 262 274 291 303 298 292 286 269 152 164 188 197
215 216 213 216 217 219 221 222 219 223 228 188 185 187 191 187 187 196 202 210 217 220 226 226 226 224 220 209 206 214 212 212 178 178 178 179 191 193 194 195 198 205 208 204 194 197 200 207 174 144 147 132 133 141 150 153 162 203 219 222 225 222 229 232 249 257 263 260 220 180 217 241 252 265 268 278 285 268 265 265 30 164 188 197 211
216 217 217 217 218 219 221 223 219 221 229 211 185 189 191 187 191 198 201 209 216 221 222 224 225 226 225 211 205 208 212 210 174 182 182 182 191 191 195 202 204 202 200 200 210 196 188 191 171 159 151 155 152 168 168 169 169 201 222 232 230 234 240 246 247 246 258 252 258 193 217 248 258 238 246 282 279 291 297 292 296 283 255 261 244